User: anonymous   Login
Location: Unspecified
(43.4680°N, 87.1740°E)
Time: 04:21:29
(UTC+00:00)
Language:

Cosmos 2297 Rocket - Orbit

View from above orbital plane
View from above orbital plane
View from above satellite
View from above satellite

Ground track
Ground track

The orbit data is extracted from the following two-line orbital elements,

1 23405U 94077B   21169.47172253  .00000188  00000-0  12132-3 0  9990
2 23405  70.9838  20.8557 0004727 267.1113  92.9469 14.15242342372132
Epoch (UTC): 18 June 2021 11:19:16
Eccentricity: 0.0004727
inclination: 70.9838°
perigee height: 838 km
apogee height: 845 km
right ascension of ascending node: 20.8557°
argument of perigee: 267.1113°
revolutions per day: 14.15242342
mean anomaly at epoch: 92.9469°
orbit number at epoch: 37213

The dashed part of the orbit path shows where the satellite is in the earth's shadow,  

DLR